GW3182 Weather Reports


Display with metric or nautical units.
time (UTC)temp
F
wind
direction
speed
MPH
gust
MPH
rain 1hr
in
rain 24hr
in
rain mn
in
humidity
%
barometer
mb
20260507030627 41 229 1.0 1.0 0.00 0.42 0.42 99 1011.3
20260507030125 41 232 1.0 1.0 0.00 0.42 0.42 99 1011.0
20260507025621 41 235 1.0 1.0 0.01 0.42 0.42 99 1011.0
20260507025118 41 245 2.0 2.0 0.01 0.42 0.42 99 1011.0
20260507024617 41 253 2.0 2.0 0.00 0.41 0.41 99 1011.0
20260507024114 41 243 1.0 2.0 0.00 0.41 0.41 99 1011.0
20260507023609 41 246 1.0 1.0 0.00 0.41 0.41 99 1011.0
20260507023107 41 251 1.0 1.0 0.00 0.41 0.41 99 1011.0
20260507022603 41 265 2.0 2.0 0.00 0.41 0.41 99 1010.6
20260507022053 41 245 1.0 1.0 0.00 0.41 0.41 99 1011.0
20260507021549 41 266 0.0 1.0 0.00 0.41 0.41 99 1011.3
20260507021045 41 272 2.0 2.0 0.00 0.41 0.41 99 1011.0
20260507020543 41 242 1.0 1.0 0.00 0.41 0.41 99 1011.3
20260507020034 41 243 2.0 2.0 0.00 0.41 0.41 99 1011.3
20260507015532 41 297 2.0 2.0 0.00 0.41 0.41 99 1011.0
20260507015030 41 244 1.0 1.0 0.00 0.41 0.41 99 1011.3
20260507014526 41 247 2.0 2.0 0.00 0.41 0.41 99 1011.7
20260507014021 41 255 1.0 2.0 0.00 0.41 0.41 99 1011.3
20260507013518 41 245 0.0 1.0 0.00 0.41 0.41 99 1011.7
20260507013016 40 257 1.0 2.0 0.00 0.41 0.41 99 1011.3
20260507012513 40 286 2.0 2.0 0.00 0.41 0.41 99 1011.3
20260507012009 40 285 2.0 2.0 0.00 0.41 0.41 99 1011.3
20260507011506 40 245 1.0 1.0 0.00 0.41 0.41 99 1011.3
20260507011002 40 254 1.0 1.0 0.00 0.41 0.41 99 1011.7
20260507010457 40 245 2.0 2.0 0.00 0.41 0.41 99 1011.0
20260507005954 41 277 2.0 2.0 0.00 0.41 0.41 99 1011.3
20260507005451 40 253 1.0 1.0 0.00 0.41 0.41 99 1011.0
20260507004947 40 274 0.0 1.0 0.00 0.41 0.41 99 1010.6
20260507004444 40 257 1.0 2.0 0.00 0.41 0.41 99 1011.0
20260507003942 40 245 1.0 1.0 0.00 0.41 0.41 99 1010.6
20260507003437 40 271 1.0 1.0 0.00 0.41 0.41 99 1011.0
20260507002932 40 246 1.0 2.0 0.00 0.41 0.41 99 1010.6
20260507002428 40 267 3.0 5.0 0.00 0.41 0.41 99 1010.6
20260507001925 40 249 3.0 3.0 0.00 0.41 0.41 99 1010.6
20260507001421 40 245 2.0 2.0 0.00 0.41 0.41 99 1011.0
20260507000914 40 258 2.0 2.0 0.00 0.41 0.41 99 1010.6
20260507000409 40 250 2.0 3.0 0.00 0.41 0.41 99 1010.6
20260506235905 40 274 2.0 2.0 0.00 0.41 0.41 99 1010.2
20260506235403 40 271 0.0 1.0 0.00 0.41 0.41 99 1010.6
20260506234858 40 238 2.0 3.0 0.00 0.41 0.41 99 1010.6
20260506234356 40 272 3.0 3.0 0.00 0.41 0.41 99 1010.2
20260506233854 40 271 2.0 2.0 0.00 0.41 0.41 99 1010.6
20260506233349 40 268 3.0 3.0 0.00 0.41 0.41 99 1010.2
20260506232846 40 295 2.0 2.0 0.00 0.41 0.41 99 1009.9
20260506232342 40 314 4.0 5.0 0.00 0.41 0.41 99 1010.2
20260506231833 40 268 2.0 2.0 0.00 0.41 0.41 99 1009.9
20260506231331 40 258 4.0 3.0 0.00 0.41 0.41 99 1009.9
20260506230828 40 326 3.0 3.0 0.00 0.41 0.41 99 1009.9
20260506230325 40 271 2.0 2.0 0.00 0.41 0.41 99 1009.9
20260506225820 40 290 3.0 3.0 0.00 0.41 0.41 99 1009.9
20260506225318 40 313 3.0 3.0 0.00 0.41 0.41 99 1009.9
20260506224815 41 315 2.0 2.0 0.00 0.41 0.41 99 1009.9
20260506224312 41 319 4.0 5.0 0.00 0.41 0.41 99 1009.9
20260506223809 41 315 1.0 2.0 0.00 0.41 0.41 99 1009.9
20260506223304 41 302 3.0 3.0 0.00 0.41 0.41 99 1009.5
20260506222801 41 249 3.0 3.0 0.00 0.41 0.41 99 1009.9
20260506222256 41 316 3.0 3.0 0.00 0.41 0.41 99 1009.5
20260506221754 41 313 1.0 2.0 0.00 0.41 0.41 99 1009.9
20260506221252 41 276 1.0 1.0 0.00 0.41 0.41 99 1009.9
20260506220750 41 259 0.0 1.0 0.00 0.41 0.41 99 1009.9
20260506220249 41 321 4.0 5.0 0.00 0.41 0.41 99 1009.9
20260506215746 41 338 4.0 6.0 0.00 0.41 0.41 99 1009.9
20260506215242 41 265 5.0 6.0 0.00 0.41 0.41 99 1009.5
20260506214739 41 312 3.0 5.0 0.00 0.41 0.41 99 1009.5
20260506214236 41 323 2.0 2.0 0.00 0.41 0.41 99 1009.5
20260506213734 41 278 4.0 5.0 0.00 0.41 0.41 99 1009.9
20260506213231 41 311 2.0 3.0 0.00 0.41 0.41 99 1009.5
20260506212728 41 304 5.0 7.0 0.00 0.41 0.41 99 1009.2
20260506212224 41 314 7.0 9.0 0.00 0.41 0.41 99 1009.5
20260506211719 41 323 2.0 3.0 0.00 0.41 0.41 99 1009.5
20260506211216 41 272 3.0 3.0 0.00 0.41 0.41 99 1009.2
20260506210713 41 308 3.0 3.0 0.00 0.41 0.41 99 1009.5
20260506210210 41 285 1.0 1.0 0.00 0.41 0.41 99 1009.2
20260506205708 41 334 7.0 8.0 0.00 0.41 0.41 99 1009.2
20260506205208 41 260 5.0 6.0 0.00 0.41 0.41 99 1009.2
20260506204705 41 318 7.0 11.0 0.00 0.41 0.41 99 1008.9
20260506204202 41 288 3.0 5.0 0.00 0.41 0.41 99 1008.9
20260506203700 41 267 5.0 7.0 0.00 0.41 0.41 99 1008.9
20260506203157 41 333 5.0 6.0 0.00 0.41 0.41 99 1008.9
20260506202655 42 327 4.0 6.0 0.00 0.41 0.41 99 1008.4
20260506202150 42 264 1.0 2.0 0.00 0.41 0.41 99 1008.4
20260506201648 42 236 5.0 6.0 0.00 0.41 0.41 99 1008.4
20260506201144 42 286 5.0 6.0 0.00 0.41 0.41 99 1008.1
20260506200641 42 328 11.0 15.0 0.00 0.41 0.41 99 1008.1
20260506200138 42 290 5.0 6.0 0.00 0.41 0.41 99 1008.1
20260506195634 42 316 4.0 6.0 0.01 0.41 0.41 99 1008.1
20260506195130 42 319 4.0 5.0 0.01 0.41 0.41 99 1008.1
20260506194628 42 321 11.0 11.0 0.01 0.41 0.41 99 1008.1
20260506194124 42 306 3.0 3.0 0.01 0.41 0.41 99 1008.1
20260506193622 42 299 4.0 5.0 0.01 0.41 0.41 99 1008.1
20260506193119 42 306 4.0 6.0 0.01 0.41 0.41 99 1008.1
20260506192616 42 307 4.0 6.0 0.00 0.40 0.40 99 1008.1
20260506192107 42 319 5.0 6.0 0.00 0.40 0.40 99 1008.1
20260506191603 42 309 4.0 5.0 0.00 0.40 0.40 99 1008.1
20260506191058 42 300 4.0 5.0 0.00 0.40 0.40 99 1008.1
20260506190556 42 302 6.0 7.0 0.00 0.40 0.40 99 1008.1
20260506190053 42 317 4.0 5.0 0.00 0.40 0.40 99 1008.1
20260506185550 42 320 8.0 11.0 0.02 0.40 0.40 99 1008.1
20260506185047 42 310 6.0 7.0 0.02 0.40 0.40 99 1007.8
20260506184544 42 316 4.0 5.0 0.02 0.40 0.40 99 1007.8
20260506184041 42 301 5.0 6.0 0.02 0.40 0.40 99 1007.8
20260506183537 42 318 5.0 6.0 0.01 0.39 0.39 99 1007.8
20260506183034 42 305 4.0 5.0 0.01 0.39 0.39 99 1007.8
20260506182531 42 233 6.0 9.0 0.01 0.39 0.39 99 1007.4
20260506182028 43 284 5.0 7.0 0.01 0.39 0.39 99 1007.4
20260506181526 43 334 7.0 9.0 0.00 0.38 0.38 99 1007.4
20260506181023 43 323 3.0 3.0 0.00 0.38 0.38 99 1007.1
20260506180519 43 315 5.0 6.0 0.00 0.38 0.38 99 1007.4
20260506180016 43 266 3.0 6.0 0.00 0.38 0.38 99 1007.4
20260506175513 43 301 4.0 5.0 0.00 0.38 0.38 99 1007.4
20260506175009 43 217 3.0 3.0 0.00 0.38 0.38 99 1007.1
20260506174508 43 301 5.0 6.0 0.00 0.38 0.38 99 1007.1
20260506174003 43 319 3.0 5.0 0.00 0.38 0.38 99 1007.4
20260506173501 43 330 4.0 6.0 0.00 0.38 0.38 99 1007.1
20260506172958 43 325 5.0 6.0 0.00 0.38 0.38 99 1007.1
20260506172455 43 272 3.0 3.0 0.00 0.38 0.38 99 1007.1
20260506171951 43 320 4.0 5.0 0.00 0.38 0.38 99 1007.1
20260506171449 42 312 4.0 5.0 0.00 0.38 0.38 99 1006.6
20260506170947 43 317 3.0 3.0 0.00 0.38 0.38 99 1007.1
20260506170443 42 323 5.0 6.0 0.00 0.38 0.38 99 1007.1
20260506165942 42 302 3.0 5.0 0.00 0.38 0.38 99 1007.1
20260506165440 42 307 6.0 7.0 0.00 0.38 0.38 99 1007.1
20260506164936 43 322 4.0 5.0 0.00 0.38 0.38 99 1007.1
20260506164432 43 314 4.0 5.0 0.00 0.38 0.38 99 1007.1
20260506163925 42 304 2.0 2.0 0.00 0.38 0.38 99 1007.1
20260506163419 42 303 5.0 7.0 0.00 0.38 0.38 99 1007.1
20260506162915 43 319 5.0 6.0 0.00 0.38 0.38 99 1007.1
20260506162412 42 313 3.0 3.0 0.00 0.38 0.38 99 1007.1
20260506161909 42 304 4.0 5.0 0.00 0.38 0.38 99 1007.1
20260506161407 42 313 4.0 6.0 0.00 0.38 0.38 99 1006.6
20260506160859 42 321 4.0 6.0 0.00 0.38 0.38 99 1007.1
20260506160355 42 267 3.0 5.0 0.00 0.38 0.38 99 1007.1
20260506155854 42 265 2.0 2.0 0.01 0.38 0.38 99 1006.6
20260506155351 42 315 2.0 2.0 0.01 0.38 0.38 99 1006.6
20260506153508 42 292 1.0 1.0 0.01 0.38 0.38 99 1007.1
20260506153006 42 281 2.0 2.0 0.01 0.38 0.38 99 1007.1
20260506152502 42 269 1.0 1.0 0.01 0.38 0.38 99 1007.1
20260506152001 42 319 0.0 0.0 0.00 0.37 0.37 99 1007.1
20260506151458 42 243 1.0 1.0 0.00 0.37 0.37 99 1007.1
20260506150955 42 286 1.0 2.0 0.00 0.37 0.37 99 1007.1
20260506150450 42 314 4.0 5.0 0.00 0.37 0.37 99 1007.1
20260506145948 42 278 5.0 7.0 0.00 0.37 0.37 99 1007.1
20260506145444 42 309 4.0 3.0 0.00 0.37 0.37 99 1007.1
20260506144942 42 270 3.0 3.0 0.00 0.37 0.37 99 1007.1
20260506144438 43 315 3.0 3.0 0.00 0.37 0.37 99 1007.1
20260506143937 43 314 3.0 3.0 0.00 0.37 0.37 99 1006.6
20260506143433 43 289 2.0 3.0 0.00 0.37 0.37 99 1006.6
20260506142932 44 309 3.0 2.0 0.00 0.37 0.37 99 1006.3
20260506142430 44 295 2.0 2.0 0.00 0.37 0.37 99 1006.3
20260506141927 44 244 0.0 1.0 0.00 0.37 0.37 99 1006.6
20260506141425 44 260 1.0 1.0 0.00 0.37 0.37 99 1006.6
20260506140923 44 216 1.0 2.0 0.00 0.37 0.37 99 1007.1
20260506140420 44 296 2.0 2.0 0.00 0.37 0.37 99 1006.6
20260506135917 44 265 3.0 5.0 0.08 0.37 0.37 99 1007.1
20260506135414 45 233 1.0 2.0 0.08 0.37 0.37 99 1006.6
20260506134910 46 248 1.0 1.0 0.07 0.36 0.36 98 1007.1
20260506134406 47 226 0.0 0.0 0.07 0.36 0.36 99 1006.6
20260506133903 48 227 0.0 0.0 0.07 0.36 0.36 99 1006.6
20260506133400 50 221 0.0 0.0 0.07 0.36 0.36 99 1007.1
20260506132857 50 193 3.0 2.0 0.06 0.35 0.35 99 1007.1
20260506132354 49 167 0.0 1.0 0.05 0.34 0.34 99 1006.6
20260506131852 49 201 0.0 0.0 0.04 0.33 0.33 99 1007.1
20260506131348 47 189 3.0 3.0 0.03 0.32 0.32 99 1007.1
20260506130845 47 250 0.0 0.0 0.02 0.31 0.31 98 1007.1
20260506130341 47 186 0.0 0.0 0.01 0.30 0.30 98 1007.1
20260506125839 47 257 0.0 0.0 0.12 0.28 0.28 98 1007.1
20260506125338 47 301 1.0 1.0 0.11 0.27 0.27 98 1007.4
20260506124836 49 318 4.0 6.0 0.09 0.25 0.25 98 1007.4
20260506124332 50 239 0.0 1.0 0.08 0.24 0.24 98 1007.4
20260506123830 50 206 1.0 1.0 0.07 0.23 0.23 98 1007.1
20260506123328 50 171 0.0 1.0 0.06 0.22 0.22 98 1007.1
20260506122825 50 194 1.0 1.0 0.04 0.20 0.20 98 1007.1
20260506122322 50 173 1.0 1.0 0.03 0.19 0.19 98 1007.1
20260506121820 50 201 0.0 0.0 0.02 0.18 0.18 98 1006.6
20260506121317 50 155 1.0 1.0 0.01 0.17 0.17 98 1006.6
20260506120814 50 166 1.0 1.0 0.01 0.17 0.17 97 1006.6
20260506120312 50 159 3.0 5.0 0.00 0.16 0.16 97 1006.3
20260506115809 50 172 2.0 2.0 0.08 0.16 0.16 97 1006.6
20260506115307 50 145 5.0 6.0 0.07 0.15 0.15 97 1007.1
20260506114805 51 157 5.0 8.0 0.07 0.15 0.15 97 1006.6
20260506114303 51 169 5.0 7.0 0.06 0.14 0.14 97 1006.6
20260506113801 51 204 5.0 7.0 0.06 0.14 0.14 97 1006.6
20260506113258 50 183 4.0 6.0 0.05 0.13 0.13 97 1006.6
20260506112754 50 156 3.0 3.0 0.05 0.13 0.13 97 1007.1
20260506112252 50 179 3.0 3.0 0.04 0.12 0.12 97 1007.1
20260506111749 50 153 7.0 8.0 0.03 0.11 0.11 97 1007.1
20260506111247 50 182 5.0 7.0 0.02 0.10 0.10 97 1007.1
20260506110744 50 191 0.0 0.0 0.00 0.08 0.08 97 1007.4
20260506110241 49 172 4.0 6.0 0.00 0.08 0.08 97 1007.4
20260506105737 49 207 4.0 6.0 0.04 0.08 0.08 97 1007.4
20260506105234 49 205 3.0 2.0 0.03 0.07 0.07 98 1007.1
20260506104732 49 188 2.0 2.0 0.03 0.07 0.07 98 1007.1
20260506104230 49 224 4.0 5.0 0.03 0.07 0.07 98 1007.1
20260506103727 49 174 3.0 3.0 0.02 0.06 0.06 98 1007.1
20260506103224 49 221 2.0 3.0 0.02 0.06 0.06 98 1007.1
20260506102722 49 198 0.0 0.0 0.02 0.06 0.06 98 1007.1
20260506102220 48 195 1.0 1.0 0.01 0.05 0.05 98 1007.1
20260506101716 48 214 0.0 0.0 0.01 0.05 0.05 98 1007.1
20260506101213 47 205 1.0 1.0 0.01 0.05 0.05 98 1007.1
20260506100711 47 352 0.0 0.0 0.00 0.04 0.04 98 1007.1
20260506100208 47 308 0.0 0.0 0.00 0.04 0.04 98 1007.4
20260506095707 47 284 0.0 0.0 0.03 0.03 0.03 98 1007.1
20260506095204 46 273 0.0 0.0 0.03 0.03 0.03 97 1007.1
20260506094701 46 274 1.0 1.0 0.03 0.03 0.03 97 1007.4
20260506094158 46 264 1.0 1.0 0.02 0.02 0.02 97 1007.4
20260506093657 46 247 1.0 1.0 0.02 0.02 0.02 97 1007.8
20260506093154 46 264 1.0 1.0 0.02 0.02 0.02 96 1007.4
20260506092651 46 336 5.0 7.0 0.02 0.02 0.02 95 1007.1
20260506092149 47 251 2.0 2.0 0.01 0.01 0.01 94 1007.4
20260506091647 48 299 5.0 7.0 0.01 0.01 0.01 92 1007.4
20260506091144 50 207 3.0 3.0 0.01 0.01 0.01 92 1007.4
20260506090642 50 176 2.0 3.0 0.01 0.01 0.01 92 1007.1
20260506090138 50 177 6.0 8.0 0.00 0.00 0.00 92 1007.1
20260506085635 49 148 7.0 10.0 0.00 0.00 0.00 93 1007.4
20260506085131 49 180 3.0 6.0 0.00 0.00 0.00 94 1007.1
20260506084627 49 124 3.0 5.0 0.00 0.00 0.00 95 1007.4
20260506084124 48 108 6.0 8.0 0.00 0.00 0.00 95 1007.8
20260506083621 48 99 5.0 7.0 0.00 0.00 0.00 95 1007.4
20260506083119 48 95 5.0 7.0 0.00 0.00 0.00 94 1007.8
20260506082615 48 107 6.0 7.0 0.00 0.00 0.00 94 1007.4
20260506082111 48 100 7.0 8.0 0.00 0.00 0.00 94 1007.1
20260506081610 48 101 5.0 6.0 0.00 0.00 0.00 94 1007.4
20260506081107 48 91 4.0 5.0 0.00 0.00 0.00 95 1007.8
20260506080604 47 101 7.0 8.0 0.00 0.00 0.00 95 1007.4
20260506073044 48 102 6.0 7.0 0.00 0.00 0.00 94 1007.4
20260506072541 48 99 7.0 8.0 0.00 0.00 0.00 94 1007.4
20260506072039 47 110 4.0 5.0 0.00 0.00 0.00 94 1007.8
20260506071537 47 96 4.0 5.0 0.00 0.00 0.00 94 1007.4
20260506071034 47 99 4.0 5.0 0.00 0.00 0.00 94 1007.8
20260506070531 47 93 2.0 3.0 0.00 0.00 0.00 94 1007.8
20260506062509 47 86 0.0 1.0 0.00 0.00 0.00 92 1008.9
20260506062005 47 90 0.0 0.0 0.00 0.00 0.00 93 1008.9
20260506061501 47 91 1.0 1.0 0.00 0.00 0.00 92 1008.9
20260506060959 47 105 0.0 0.0 0.00 0.00 0.00 92 1008.9
20260506060457 47 105 0.0 0.0 0.00 0.00 0.00 92 1008.9
20260506050926 48 82 5.0 5.0 0.00 0.00 0.00 92 1009.5
20260506050424 48 95 4.0 3.0 0.00 0.00 0.00 92 1009.5
20260506044914 48 78 0.0 1.0 0.00 0.00 0.00 90 1009.9
20260506044412 48 81 2.0 2.0 0.00 0.00 0.00 90 1009.9
20260506043909 48 92 2.0 2.0 0.00 0.00 0.00 90 1009.9
20260506043406 48 103 3.0 3.0 0.00 0.00 0.00 90 1009.5
20260506042904 48 91 3.0 3.0 0.00 0.00 0.00 90 1009.5
20260506042403 48 92 3.0 3.0 0.00 0.00 0.00 90 1009.5
20260506041901 48 100 2.0 2.0 0.00 0.00 0.00 89 1009.5
20260506041358 48 101 4.0 5.0 0.00 0.00 0.00 89 1009.5
20260506040855 48 87 4.0 5.0 0.00 0.00 0.00 89 1009.2
20260506040353 48 88 3.0 3.0 0.00 0.00 0.00 89 1009.5
20260506035848 48 91 2.0 2.0 0.00 0.20 0.20 89 1009.9
20260506035346 48 104 3.0 2.0 0.00 0.20 0.20 88 1009.9
20260506034843 49 95 0.0 1.0 0.00 0.20 0.20 88 1009.9
20260506034340 49 85 1.0 1.0 0.00 0.20 0.20 89 1009.9
20260506033837 49 72 2.0 2.0 0.00 0.20 0.20 89 1009.9
20260506033334 49 70 1.0 1.0 0.00 0.20 0.20 88 1009.9
20260506032831 49 70 2.0 2.0 0.00 0.20 0.20 88 1009.9
20260506032328 49 75 1.0 1.0 0.00 0.20 0.20 88 1009.9
20260506031825 49 63 2.0 2.0 0.00 0.20 0.20 88 1010.2
20260506031322 49 72 0.0 0.0 0.00 0.20 0.20 88 1010.2